Retour au catalogue

STARLINK-31979

ActifCommunicationsVLEO
NORAD 59964·PAYLOAD·🇺🇸 United States

Lancé Jun 5, 2024 depuis Cape Canaveral Space Force Station

Loading…

Prochains Passages (prochaines 24 heures)

TLE

FraisSource: CelesTrak SupGP

Époque: Sep 14, 2026, 20:43 UTC

1 59964C 24107V   26257.86368056  .00050002  00000+0  14777-2 0  2572
2 59964  53.1582 263.8084 0001225  94.6819 225.1530 15.34358182    16

Suivez STARLINK-31979 en temps réel avec AllMySat

Download on the App Store